Location: ??
(34.7707°N, 135.6540°E)
Time: 08:03:13
(UTC+00:00)

CENTAUR R/B - Pass Details

Date: 09 April 2020
Orbit: 761 x 1427 km, 63.5° (Epoch: 24 May)

Event Time Altitude Azimuth Distance (km) Brightness Sun altitude
Exits shadow 18:04:09 52° 320° (NW) 1,148 2.7 -28.9°
Drops below altitude 10° 18:10:16 10° 23° (NNE) 2,872 5.6 -27.8°
Sets 18:13:13 0° 28° (NNE) 3,940 6.6 -27.3°
